Weather in Abzelilovo

Russia / Republic of Bashkortostan     53°28′03″N   58°39′40″E
temp.,
°C
wind,
m/s
gust,
m/s
humid.,
%
clouds,
%
prec.,
mm/h
press.,
hPa
HPBL,
m
1 march, mon
mon123:00−13nne349696 0.4 100877
02:00−16n239692 0.1 101021
05:00−17nne129792 0.1 101220
08:00−17ene119789 0.1 101420
11:00−14e119392 0.3 1015179
14:00−12sse2190100 0.0 1016266
17:00−12s2394100 0.1 1016210
20:00−14s229799 0.1 101730
2 march, tue
tue223:00−14sse119798 0.2 101820
02:00−17w1198100 0.0 101720
05:00−18w229488 0.0 101720
08:00−20wnw22920 0.0 101620
11:00−14w23860 0.0 1015147
14:00−9sw367934 0.0 1012502
17:00−9sw5108566 0.0 1010575
20:00−12sw51287100 0.0 1009428
3 march, wed
wed323:00−15sw4590100 0.0 1008115
02:00−12ssw3590100 0.0 100599
05:00−7ssw51388100 0.0 1003640
08:00−8sw4989100 0.0 1002235
11:00−4sw41087100 0.0 1002642
14:00−2wsw588298 0.0 10011043
17:00−2wsw488499 0.1 1001327
20:00−7wsw3387100 0.0 100229
4 march, thu
thu423:00−10wsw228868 0.0 100321
02:00−12w228944 0.0 100221
05:00−14w228954 0.0 100321
08:00−15w23890 0.0 100421
11:00−9w310839 0.0 1005655
14:00−7wnw597754 0.0 10061128
17:00−8w498172 0.0 1007483
20:00−12sw448629 0.0 100867
5 march, fri
fri523:00−11sw4148862 0.0 1009470
02:00−10sw51587100 0.0 1007575
05:00−7ssw7158790 0.0 1004696
08:00−4sw81884100 0.0 10021005
11:00−2wsw11208093 0.0 10021260
14:00−1wsw11197929 0.0 10031394
17:00−1w8148441 0.1 10061094
20:00−7w5137241 0.1 1009314